Date String (YYYY-MM-DD hh:mm:ss) UTC,Instrument flags,Ambient pressure (hPa),Sample flow (lpm),Bypass flow (lpm),Sample temperature (°C),Ambient temperature (°C),ASC tube jacket temperature (°C),LED temperature (°C),Box temperature (°C),Sample RH (%),Span deviation,Mass concentration (μg/m³),Mass concentration (μg/m³),Mass concentration (μg/m³)
DateTimeUTC,F1_M11,P_M11,Q1_M11,Q2_M11,T1_M11,T2_M11,T3_M11,T4_M11,T5_M11,U1_M11,ZSPAN_M11,X0_M11,X2_M11,X1_M11
2022-07-29 02:00:00,,0830.6,4.99,0.00,30.9,27.4,00.0,39.5,31.9,34.7,0000.2,0009.72,0006.92,0006.49
2022-07-29 02:01:00,,0830.5,5.01,0.00,30.8,27.5,00.0,39.5,31.9,35.3,0000.4,0009.68,0006.90,0006.49
2022-07-29 02:02:00,,0830.5,4.99,0.00,31.0,27.6,00.0,39.4,32.0,34.9,0000.5,0009.64,0006.85,0006.43
2022-07-29 02:03:00,,0830.6,5.00,0.00,31.2,27.7,00.0,39.4,32.1,34.5,0000.3,0010.01,0006.79,0006.37
2022-07-29 02:04:00,,0830.6,5.00,0.00,31.2,27.9,00.0,39.4,32.1,34.4,0000.4,0010.60,0006.73,0006.31
2022-07-29 02:05:00,,0830.6,5.01,0.00,31.2,28.1,00.0,39.4,32.1,34.5,0000.5,0010.43,0006.65,0006.25
2022-07-29 02:06:00,,0830.6,4.99,0.00,31.2,28.2,00.0,39.4,32.1,34.5,0000.7,0010.33,0006.59,0006.20
2022-07-29 02:07:00,,0830.6,4.98,0.00,31.2,28.3,00.0,39.5,32.1,34.5,0001.3,0010.57,0006.57,0006.15
2022-07-29 02:08:00,,0830.6,5.02,0.00,31.2,28.4,00.0,39.5,32.1,34.6,0001.7,0010.85,0006.51,0006.09
2022-07-29 02:09:00,,0830.6,5.00,0.00,31.2,28.6,00.0,39.5,32.1,34.6,0001.7,0010.87,0006.49,0006.02
2022-07-29 02:10:00,,0830.6,5.00,0.00,31.1,28.6,00.0,39.5,32.1,34.6,0001.5,0010.74,0006.44,0005.97
2022-07-29 02:11:00,,0830.6,5.00,0.00,31.1,28.7,00.0,39.5,32.2,34.5,0001.2,0010.80,0006.43,0005.95
2022-07-29 02:12:00,,0830.7,5.00,0.00,31.1,28.8,00.0,39.5,32.2,34.6,0001.1,0010.78,0006.39,0005.95
2022-07-29 02:13:00,,0830.7,4.99,0.00,31.1,28.9,00.0,39.6,32.2,34.8,0001.2,0010.67,0006.36,0005.96
2022-07-29 02:14:00,,0830.7,5.00,0.00,31.1,28.9,00.0,39.6,32.2,34.8,0001.4,0010.35,0006.40,0005.99
2022-07-29 02:15:00,,0830.7,5.01,0.00,31.1,29.0,00.0,39.6,32.2,34.8,0000.8,0009.97,0006.44,0006.03
2022-07-29 02:16:00,,0830.7,4.99,0.00,31.0,29.0,00.0,39.6,32.3,34.7,0000.4,0010.76,0006.48,0006.06
2022-07-29 02:17:00,,0830.6,5.01,0.00,31.0,29.1,00.0,39.6,32.3,34.8,0000.7,0011.20,0006.54,0006.08
2022-07-29 02:18:00,,0830.7,5.00,0.00,31.0,28.9,00.0,39.6,32.3,34.9,0000.6,0011.07,0006.57,0006.11
2022-07-29 02:19:00,,0830.6,4.99,0.00,31.0,28.2,00.0,39.5,32.0,34.9,0000.7,0011.12,0006.61,0006.16
2022-07-29 02:20:00,,0830.6,5.00,0.00,30.9,27.4,00.0,39.5,31.9,35.2,0000.9,0011.54,0006.64,0006.22
2022-07-29 02:21:00,,0830.6,5.01,0.00,31.0,27.2,00.0,39.4,32.0,35.2,0000.5,0011.90,0006.71,0006.25
2022-07-29 02:22:00,,0830.8,4.98,0.00,31.1,27.2,00.0,39.4,32.0,34.7,0000.4,0011.86,0006.72,0006.25
2022-07-29 02:23:00,,0830.8,5.00,0.00,31.3,27.4,00.0,39.3,32.0,34.5,0000.4,0011.85,0006.73,0006.23
2022-07-29 02:24:00,,0830.8,5.01,0.00,31.3,27.6,00.0,39.3,32.0,34.4,0000.5,0011.93,0006.77,0006.24
2022-07-29 02:25:00,,0830.8,4.99,0.00,31.3,27.7,00.0,39.4,32.0,34.4,0000.2,0012.00,0006.78,0006.26
2022-07-29 02:26:00,,0830.7,5.00,0.00,31.2,27.9,00.0,39.4,32.0,34.5,0000.2,0012.22,0006.80,0006.27
2022-07-29 02:27:00,,0830.7,4.99,0.00,31.2,28.0,00.0,39.4,32.0,34.6,0000.5,0012.25,0006.82,0006.28
2022-07-29 02:28:00,,0830.7,5.00,0.00,31.2,28.2,00.0,39.4,32.0,34.6,0000.2,0012.42,0006.83,0006.31
2022-07-29 02:29:00,,0830.7,5.02,0.00,31.2,28.3,00.0,39.4,32.0,34.7,-000.2,0012.47,0006.87,0006.34
2022-07-29 02:30:00,,0830.7,5.01,0.00,31.1,28.4,00.0,39.5,32.0,34.8,-000.3,0011.99,0006.87,0006.34
2022-07-29 02:31:00,,0830.6,5.00,0.00,31.1,28.5,00.0,39.5,32.1,34.9,-000.5,0011.52,0006.87,0006.34
2022-07-29 02:32:00,,0830.6,5.01,0.00,31.1,28.6,00.0,39.5,32.1,35.0,-000.2,0011.24,0006.85,0006.36
2022-07-29 02:33:00,,0830.7,4.99,0.00,31.2,28.7,00.0,39.5,32.2,34.7,-000.0,0011.20,0006.85,0006.38
2022-07-29 02:34:00,,0830.7,5.00,0.00,31.3,28.7,00.0,39.5,32.2,34.7,0000.0,0011.21,0006.88,0006.41
2022-07-29 02:35:00,,0830.7,5.00,0.00,31.3,28.8,00.0,39.5,32.2,34.7,-000.2,0011.18,0006.88,0006.43
2022-07-29 02:36:00,,0830.7,5.00,0.00,31.3,28.9,00.0,39.5,32.2,34.8,-000.0,0011.09,0006.89,0006.45
2022-07-29 02:37:00,,0830.7,5.00,0.00,31.2,28.9,00.0,39.6,32.2,34.8,0000.6,0010.71,0006.92,0006.48
2022-07-29 02:38:00,,0830.8,5.00,0.00,31.2,29.0,00.0,39.6,32.3,34.4,0000.4,0010.02,0006.93,0006.50
2022-07-29 02:39:00,,0830.8,5.00,0.00,31.2,29.0,00.0,39.6,32.3,34.2,0000.6,0009.58,0006.94,0006.53
2022-07-29 02:40:00,,0830.8,5.00,0.00,31.2,29.0,00.0,39.6,32.3,34.5,0000.9,0010.23,0006.96,0006.55
2022-07-29 02:41:00,,0830.8,4.99,0.00,31.2,29.1,00.0,39.6,32.3,34.7,0001.0,0010.45,0006.99,0006.57
2022-07-29 02:42:00,,0830.8,4.99,0.00,31.2,29.1,00.0,39.6,32.3,34.6,0000.9,0011.03,0007.02,0006.60
2022-07-29 02:43:00,,0830.8,5.00,0.00,31.2,28.6,00.0,39.6,32.2,34.6,0000.8,0011.29,0007.04,0006.62
2022-07-29 02:44:00,,0830.8,5.00,0.00,31.1,28.0,00.0,39.6,32.1,34.7,0000.6,0011.77,0007.11,0006.67
2022-07-29 02:45:00,,0830.7,5.01,0.00,31.0,27.7,00.0,39.5,32.0,35.0,0000.7,0011.84,0007.13,0006.71
2022-07-29 02:46:00,,0830.6,5.00,0.00,31.0,27.7,00.0,39.5,32.0,34.9,0000.9,0012.36,0007.18,0006.74
2022-07-29 02:47:00,,0830.6,4.99,0.00,31.0,27.8,00.0,39.5,32.0,34.8,0000.4,0013.32,0007.20,0006.76
2022-07-29 02:48:00,,0830.6,5.00,0.00,31.0,28.0,00.0,39.5,32.0,34.9,-000.0,0013.52,0007.23,0006.78
2022-07-29 02:49:00,,0830.6,5.00,0.00,31.0,28.1,00.0,39.4,32.0,35.0,0000.3,0013.99,0007.25,0006.78
2022-07-29 02:50:00,,0830.6,5.00,0.00,31.1,28.2,00.0,39.4,32.1,34.9,0000.4,0014.11,0007.22,0006.75
2022-07-29 02:51:00,,0830.7,5.01,0.00,31.3,28.4,00.0,39.4,32.2,34.4,0000.4,0013.36,0007.16,0006.71
2022-07-29 02:52:00,,0830.7,5.00,0.00,31.4,28.5,00.0,39.5,32.3,34.3,-000.1,0013.27,0007.17,0006.68
2022-07-29 02:53:00,,0830.8,5.00,0.00,31.4,28.6,00.0,39.5,32.2,34.2,0000.0,0012.80,0007.16,0006.65
2022-07-29 02:54:00,,0830.8,5.00,0.00,31.4,28.7,00.0,39.5,32.2,34.3,0000.4,0012.57,0007.14,0006.62
2022-07-29 02:55:00,,0830.8,5.00,0.00,31.4,28.8,00.0,39.5,32.2,34.3,0000.4,0012.28,0007.12,0006.58
2022-07-29 02:56:00,,0830.8,5.00,0.00,31.4,28.8,00.0,39.6,32.3,34.3,0000.1,0012.14,0007.08,0006.54
2022-07-29 02:57:00,,0830.8,5.01,0.00,31.3,28.9,00.0,39.6,32.3,34.2,0000.3,0011.66,0007.06,0006.53
2022-07-29 02:58:00,,0830.8,5.01,0.00,31.3,28.9,00.0,39.6,32.3,34.2,0000.5,0010.69,0007.04,0006.51
2022-07-29 02:59:00,,0830.8,5.00,0.00,31.3,29.0,00.0,39.7,32.3,34.3,0000.6,0010.57,0007.00,0006.49
